Flag for Norway Weather past 2 weeks in Knarvik, Norway

Now
69 °F

Mild.


Feels Like: 69 °F
Forecast: 60 / 69 °F
Wind: 1 mph from Northwest

Location: Bergen / Florida

Current Time: Jul 28, 2014 at 4:48:23 PM

Latest Report: Jul 28, 2014 at 4:00 PM


Visibility: N/A

Pressure: 29.97 "Hg

Humidity: 85%

Dew point: 64 °F

Location of KnarvikLocation

Historic Weather in Knarvik — Graph

°F

Knarvik temperature yesterday

Maximum temperature yesterday: 81 °F (at 12:00 PM)
Minimum temperature yesterday: 65 °F (at 6:00 AM)
Average temperature yesterday: 70 °F

Past Weeks' High & Low Weather Summary

 TemperatureHumidityPressure
High87 °F (Jul 24, 5:00 PM)90% (Jul 16, 5:00 AM)30.34 "Hg (Jul 16, 5:00 AM)
Low56 °F (Jul 16, 2:00 AM)26% (Jul 21, 12:00 PM)29.66 "Hg (Jul 14, 8:00 AM)
Average69 °F66%30.04 "Hg
* Reported Jul 13 3:00 PM — Jul 28 3:00 PM, Knarvik, Weather by CustomWeather, © 2014

Note: Actual official high and low records may vary slightly from our data, if they occured in-between our weather recording intervals... More about our weather records

Advertising

Knarvik weather history for previous 24 hours

 ConditionsComfort  
Time TempWeatherWind HumidityBarometerVisibility
3:00 PM
Jul 28
67 °FMild.1 mph83%29.98 "HgN/A
2:00 PM69 °FSprinkles. Partly sunny.3 mph76%29.97 "Hg25 mi
1:00 PM66 °FMild.2 mph84%29.98 "HgN/A
12:00 PM67 °FMild.5 mph79%29.97 "HgN/A
11:00 AM70 °FOvercast.2 mph71%29.97 "Hg25 mi
10:00 AM71 °FMild.2 mph72%29.96 "HgN/A
9:00 AM68 °FMild.1 mph80%29.96 "HgN/A
8:00 AM65 °FSprinkles. Low clouds.1 mph87%29.95 "Hg22 mi
7:00 AM65 °FMild.2 mph88%29.95 "HgN/A
6:00 AM64 °FMild.1 mph88%29.95 "HgN/A
5:00 AM63 °FMild.2 mph87%29.95 "HgN/A
4:00 AM65 °FMild.3 mph85%29.95 "HgN/A
3:00 AM65 °FMild.2 mph86%29.93 "HgN/A
2:00 AM66 °FMild.2 mph86%29.94 "HgN/A
1:00 AM65 °FMild.1 mph86%29.94 "HgN/A
12:00 AM65 °FMild.1 mph85%29.93 "HgN/A
11:00 PM
Jul 27
66 °FPassing clouds.2 mph85%29.92 "Hg19 mi
10:00 PM67 °FMild.1 mph83%29.91 "HgN/A
9:00 PM68 °FMild.1 mph83%29.90 "HgN/A
8:00 PM69 °FThunderstorms. Overcast.1 mph82%29.90 "Hg16 mi
7:00 PM68 °FMild.1 mph86%29.90 "HgN/A
6:00 PM67 °FMild.2 mph85%29.92 "HgN/A
5:00 PM67 °FLight rain. Overcast.1 mph81%29.92 "Hg7 mi
4:00 PM66 °FMild.1 mph81%29.91 "HgN/A
Weather by CustomWeather, © 2014

See weather overviewHow to use our weather pages